Tracking 29747 objects as of 10-Oct-2024
HD Live streaming from Space Station
objects crossing your sky now

DELTA 1 DEB

Track DELTA 1 DEB now!
10-day predictions


NORAD ID: 26838
Int'l Code: 1975-052KS
Perigee: 1,053.3 km
Apogee: 1,531.7 km
Inclination: 99.2 °
Period: 111.3 minutes
Semi major axis: 7663 km
RCS: 0.0136 m2 (small)
Launch date: June 12, 1975
Source: United States (US)
Launch site: AIR FORCE WESTERN TEST RANGE (AFWTR)

Note: This is SATELLITE DEBRIS
Your satellite tracking list
Your tracking list is empty




NASA's NSSDC Master Catalog

Two Line Element Set (TLE):
1 26838U 75052KS  24283.05240875  .00000985  00000-0  29529-2 0  9997
2 26838  99.2273 130.3795 0312123  39.4262 111.6615 12.94073331432404
Source of the keplerian elements: AFSPC